Marrakech, Morocco

11:54 PM WEST on August 27, 2016 (GMT +0100)
Menara

Weather History for GMMX - February, 2013

Change the Weather History Date:

Tuesday, February 19, 2013

  Actual Average Record
Temperature  
Mean Temperature 53 °F -  
Max Temperature 58 °F 71 °F 80 °F (1997)
Min Temperature 48 °F 48 °F 41 °F (1999)
Degree Days  
Heating Degree Days 12    
Growing Degree Days 3 (Base 50)    
Moisture  
Dew Point 48 °F    
Average Humidity 86    
Maximum Humidity 100    
Minimum Humidity 67    
Precipitation  
Precipitation 0.24 in 0.05 in - ()
Sea Level Pressure  
Sea Level Pressure 29.88 in    
Wind  
Wind Speed 6 mph ()    
Max Wind Speed 14 mph    
Max Gust Speed -    
Visibility 5.7 miles    
Events Rain    
Averages and records for this station are not official NWS values.
T = Trace of Precipitation, MM = Missing Value Source: Averaged Metar Reports

Daily Weather History Graph

Daily Weather History Graph

Search for Another Location

Airport or City:

Trip Planner

Search our weather history database for the weather conditions in past years. The results will help you decide how hot, cold, wet, or windy it might be!

Date:

Astronomy

Feb. 19, 2013 Rise Set
Actual Time 7:09 AM WET 6:22 PM WET
Civil Twilight 6:45 AM WET 6:47 PM WET
Nautical Twilight 6:16 AM WET 7:15 PM WET
Astronomical Twilight 5:48 AM WET 7:43 PM WET
Moon 12:54 PM WET (2/19) 2:19 AM WET (2/19)
Length of Visible Light 12h 01m
Length of Day
11h 12m
Waxing Gibbous, 65% of the Moon is Illuminated
Feb 19
Waxing Gibbous
Feb 25
Full
Mar 4
Last Quarter
Mar 11
New
Mar 19
First Quarter

Hourly Weather History & Observations

Time (WET) Temp. Dew Point Humidity Pressure Visibility Wind Dir Wind Speed Gust Speed Precip Events Conditions
12:00 AM 54 °F 47 °F 70% 29.82 in 6 mi ESE 6.9 mph - -   Partly Cloudy
12:00 AM 53.6 °F 46.4 °F 77% 29.83 in 6.2 mi ESE 6.9 mph - N/A   Mostly Cloudy
2:00 AM 53.6 °F 46.4 °F 77% 29.80 in 6.2 mi Calm Calm - N/A   Mostly Cloudy
2:30 AM 53.6 °F 46.4 °F 77% 29.80 in 6.2 mi NNW 4.6 mph - N/A   Mostly Cloudy
3:00 AM 53 °F 45 °F 67% 29.80 in 6 mi Calm Calm - -   Partly Cloudy
3:00 AM 53.6 °F 44.6 °F 72% 29.80 in 6.2 mi Calm Calm - N/A   Mostly Cloudy
3:30 AM 53.6 °F 44.6 °F 72% 29.80 in 6.2 mi NNW 3.5 mph - N/A   Mostly Cloudy
4:00 AM 53.6 °F 46.4 °F 77% 29.80 in 6.2 mi NNW 4.6 mph - N/A   Unknown
4:30 AM 53.6 °F 48.2 °F 82% 29.80 in 6.2 mi Variable 1.2 mph - N/A   Unknown
5:00 AM 53.6 °F 48.2 °F 82% 29.80 in 6.2 mi SSE 3.5 mph - N/A   Scattered Clouds
5:30 AM 53.6 °F 48.2 °F 82% 29.80 in 6.2 mi SSE 3.5 mph - N/A   Unknown
6:00 AM 52 °F 48 °F 80% 29.81 in 6 mi Calm Calm - -   Partly Cloudy
6:00 AM 51.8 °F 48.2 °F 88% 29.80 in 6.2 mi Calm Calm - N/A   Scattered Clouds
6:30 AM 51.8 °F 48.2 °F 88% 29.83 in 6.2 mi NW 5.8 mph - N/A   Scattered Clouds
7:00 AM 50.0 °F 48.2 °F 94% 29.83 in 6.2 mi West 5.8 mph - N/A   Scattered Clouds
7:30 AM 50.0 °F 50.0 °F 100% 29.83 in 6.2 mi West 6.9 mph - N/A   Scattered Clouds
8:00 AM 50.0 °F 50.0 °F 100% 29.86 in 3.7 mi West 11.5 mph - N/A Rain Rain
8:30 AM 50.0 °F 50.0 °F 100% 29.86 in 5.0 mi West 11.5 mph - N/A Rain Rain
9:00 AM 50 °F 50 °F 100% 29.88 in 4 mi West 10.4 mph - - Rain Rain
9:00 AM 50.0 °F 50.0 °F 100% 29.86 in 6.2 mi West 10.4 mph - N/A Rain Rain
9:30 AM 50.0 °F 50.0 °F 100% 29.86 in 6.2 mi West 9.2 mph - N/A   Mostly Cloudy
10:00 AM 50.0 °F 50.0 °F 100% 29.89 in 6.2 mi West 9.2 mph - N/A   Mostly Cloudy
10:30 AM 51.8 °F 50.0 °F 94% 29.89 in 5.0 mi West 9.2 mph - N/A   Partly Cloudy
11:00 AM 51.8 °F 50.0 °F 94% 29.89 in 5.0 mi WSW 8.1 mph - N/A   Partly Cloudy
11:30 AM 53.6 °F 50.0 °F 88% 29.89 in 5.0 mi WSW 6.9 mph - N/A   Partly Cloudy
11:49 AM 55 °F 50 °F 77% 29.88 in 5 mi West 6.9 mph - -   Partly Cloudy
12:00 PM 55.4 °F 50.0 °F 82% 29.89 in 5.0 mi West 6.9 mph - N/A   Partly Cloudy
12:30 PM 55.4 °F 48.2 °F 77% 29.89 in 5.0 mi SW 8.1 mph - N/A   Scattered Clouds
1:00 PM 53.6 °F 50.0 °F 88% 29.86 in 3.1 mi WSW 13.8 mph - N/A Rain Rain Showers
2:00 PM 51.8 °F 50.0 °F 94% 29.86 in 3.1 mi WSW 12.7 mph - N/A Rain Rain Showers
2:30 PM 53.6 °F 50.0 °F 88% 29.86 in 6.2 mi WNW 12.7 mph - N/A Rain Rain Showers
3:00 PM 56 °F 49 °F 72% 29.86 in 6 mi WNW 12.7 mph - - Rain Rain Showers
3:00 PM 53.6 °F 50.0 °F 88% 29.86 in 6.2 mi WNW 12.7 mph - N/A   Scattered Clouds
3:30 PM 55.4 °F 50.0 °F 82% 29.86 in 6.2 mi WNW 11.5 mph - N/A   Scattered Clouds
4:00 PM 53.6 °F 48.2 °F 82% 29.86 in 6.2 mi NW 11.5 mph - N/A Rain Rain
4:30 PM 51.8 °F 48.2 °F 88% 29.89 in 6.2 mi WNW 12.7 mph - N/A   Scattered Clouds
5:00 PM 51.8 °F 50.0 °F 94% 29.89 in 6.2 mi WSW 8.1 mph - N/A   Scattered Clouds
6:00 PM 51 °F 49 °F 90% 29.94 in 3 mi SSW 1.2 mph - - Rain Light Rain Showers
6:00 PM 51.8 °F 50.0 °F 94% 29.92 in 6.2 mi Variable 2.3 mph - N/A   Scattered Clouds
7:00 PM 50.0 °F 46.4 °F 87% 29.95 in 3.1 mi SW 6.9 mph - N/A Rain Rain Showers
7:30 PM 50.0 °F 48.2 °F 94% 29.95 in 6.2 mi South 4.6 mph - N/A   Scattered Clouds
8:00 PM 50.0 °F 48.2 °F 94% 29.95 in 6.2 mi South 6.9 mph - N/A   Scattered Clouds
8:30 PM 50.0 °F 46.4 °F 87% 29.98 in 6.2 mi South 9.2 mph - N/A   Scattered Clouds
8:49 PM 50 °F 47 °F 85% 30.00 in 6 mi South 5.8 mph - -   Partly Cloudy
9:00 PM 50.0 °F 46.4 °F 87% 29.98 in 6.2 mi South 5.8 mph - N/A   Scattered Clouds
9:30 PM 50.0 °F 46.4 °F 87% 30.01 in 6.2 mi South 5.8 mph - N/A   Scattered Clouds
10:00 PM 50.0 °F 44.6 °F 82% 30.01 in 6.2 mi SSW 6.9 mph - N/A   Scattered Clouds
10:30 PM 50.0 °F 44.6 °F 82% 30.01 in 6.2 mi SSW 6.9 mph - N/A   Scattered Clouds
11:00 PM 50.0 °F 44.6 °F 82% 30.01 in 6.2 mi SSW 5.8 mph - N/A   Scattered Clouds
11:30 PM 48.2 °F 44.6 °F 87% 30.01 in 6.2 mi SSW 5.8 mph - N/A   Scattered Clouds